sat.trackr.live / text

‹ back to catalog

STARLINK-4298

NORAD 53177 · 2022-083AX

PAYLOAD ACTIVE UNKNOWN

§ Identity

Operator
Country
US
Launch date
2022-07-17
Launch site
AFETR
Launch vehicle
Mass (kg)
RCS (m²)

Purposes: comms

External: N2YO · Heavens-Above · Gunter

§ Orbital elements

Epoch: 2026-05-25T00:46:43.134816Z

Period
95.44 min
Inclination
53.2146°
Eccentricity
0.0001110
Mean motion
15.08843982 rev/d
Perigee alt
539.0 km
Apogee alt
540.5 km
Semi-major
6,917.9 km
B*
6.5736e-5
RAAN
156.3912°
Arg perigee
67.6746°
Mean anomaly
292.4363°
Rev number
21,322

§ Raw data

STARLINK-42981 53177U 22083AX  26145.03244369  .00000759  00000+0  65736-4 0  99982 53177  53.2146 156.3912 0001110  67.6746 292.4363 15.08843982213229

JSON: /api/v1/satellites/53177 · /tle

For live sub-satellite position, see the globe view (requires WebGL).

§ Visibility from observer

Set your observer location to see the next 7 days of passes ≥ 10°. The values pass through the URL so the page stays shareable.

No JS? Fill the form by hand. The geolocation button needs JavaScript.